Other Public Products
Issued by NWS Grand Forks, ND

Home | Current Version | Previous Version | Graphics & Text | Print | Product List | Glossary On
Versions: 1 2 3 4 5 6 7 8 9 10 11 12 13 14 15 16 17 18 19 20 21 22 23 24 25 26 27 28 29 30 31 32 33 34 35 36 37 38 39 40 41 42 43 44 45 46 47 48 49 50
000
FPUS83 KFGF 210110
OPUFGF
PRAIRIE TO PINES WEATHER ROUNDUP
NATIONAL WEATHER SERVICE EASTERN NORTH DAKOTA/GRAND FORKS ND
700 PM CST SAT DEC 20 2014

 **SATELLITE DATA USED TO AUGMENT SKY COVER AT AUTOMATED STATIONS**
 *****  WEATHER ACROSS EASTERN NORTH DAKOTA  *****

CITY           SKY/WX    TMP DP  RH WIND       PRES   REMARKS
GRAND FORKS    CLOUDY    29  27  92 S13       29.91F WCI  19
GRAND FORKS AF MIX PCPN  28  28 100 S12       29.90F WCI  18
GRAND CITY NWS   N/A     28 N/A N/A S10         N/A  WCI  19
BUXTON         NOT AVBL
DEVILS LAKE    CLOUDY    27  19  74 S9        29.80F WCI  17
FARGO          CLOUDY    32  28  85 S20       29.93F FOG     WCI  20
WAHPETON ARPT  CLOUDY    32  28  86 S13       29.96F WCI  22
$$

 *****  WEATHER ACROSS CENTRAL AND WESTERN NORTH DAKOTA  *****

CITY           SKY/WX    TMP DP  RH WIND       PRES   REMARKS
JAMESTOWN      CLOUDY    29  26  89 S13       29.84F WCI  19
BISMARCK       CLEAR     24  24 100 E3        29.82F
MINOT          PTCLDY    24  22  91 S7        29.75F WCI  16
MINOT AFB      PTCLDY    21  21 100 SE3       29.75F
GARRISON         N/A     24  22  91 CALM      29.77F
WILLISTON      CLEAR     31  26  82 SW9       29.75F WCI  23
DICKINSON      PTCLDY    31  23  72 SW5       29.78S
HETTINGER      MOCLDY    31  24  75 CALM      29.83S
$$

 *****  OTHER OBSERVATIONS NORTHEAST NORTH DAKOTA  *****

CITY           SKY/WX    TMP DP  RH WIND       PRES   REMARKS
WALHALLA         N/A     27  27 100 S8G16     29.87S FOG     WCI  18
LANGDON        FOG       25  25 100 N5        29.81F VSB 3/4 WCI  19
CAVALIER       CLOUDY    28  28 100 S14       29.88F FOG     WCI  17
GRAFTON        NOT AVBL
CANDO          CLOUDY    25  25 100 S7        29.81F FOG     WCI  17
FORT TOTTEN    NOT AVBL
ROLLA          FOG       23  23 100 MISG      29.78F VSB 3/4
RUGBY          CLOUDY    25  25 100 SE6       29.79F FOG     WCI  18
 ***** THE ABOVE OBSERVATIONS ARE NON NWS ARE NOT QUALITY
        CONTROLLED AND MAY MIS-REPORT RAIN FOR SNOW...
$$

 *****  OTHER OBSERVATIONS SOUTHEAST NORTH DAKOTA *****

CITY           SKY/WX    TMP DP  RH WIND       PRES   REMARKS
COOPERSTOWN    NOT AVBL
VALLEY CITY    CLOUDY    27  27 100 S17       29.87F FOG     WCI  14
OAKES            N/A     28  28 100 S12       29.90S FOG     WCI  18
GWINNER        CLOUDY    32  32 100 MISG      29.91F
SHEYENNE NWR     N/A     31  28  90 S8        29.95S WCI  23
BUFFALO        NOT AVBL
WYNDMERE         N/A     30  30 100 S8          N/A  WCI  23
 ***** THE ABOVE OBSERVATIONS ARE NON NWS ARE NOT QUALITY
       CONTROLLED AND MAY MIS-REPORT RAIN FOR SNOW...
$$

  *****  WEATHER ACROSS NORTHERN MINNESOTA  *****

CITY           SKY/WX    TMP DP  RH WIND       PRES   REMARKS
FLAG ISLAND    CLOUDY    28  28 100 S12       29.93F FOG     WCI  18
WARROAD        CLOUDY    28  27  93 S10       29.94F FOG     WCI  19
ROSEAU         CLOUDY    30  27  86 S8        29.93S FOG     WCI  23
HALLOCK        CLOUDY    28  28 100 CALM      29.91S FOG
THF RVR FALLS  CLOUDY    28  28 100 S12       29.93S WCI  18
HALSTAD          N/A     31  28  90 S20         N/A  WCI  19
FOSSTON        CLOUDY    27  27 100 S13       29.94F FOG     WCI  16
BAUDETTE       CLOUDY    30  27  88 S10       29.95F WCI  21
WASKISH        CLOUDY    30  28  93 CALM      29.96F FOG
CROOKSTON      CLOUDY    30  28  93 S17G23    29.94F FOG     WCI  18
$$
  *****  WEATHER ACROSS CENTRAL AND WEST MINNESOTA  *****

CITY           SKY/WX    TMP DP  RH WIND       PRES   REMARKS
BEMIDJI        CLOUDY    28  28  96 S10       29.97S FOG     WCI  19
PARK RAPIDS    CLOUDY    29  27  92 S12       29.98S FOG     WCI  19
WADENA         CLOUDY    28  27  93 SE15      29.98F FOG     WCI  17
DETROIT LAKES  CLOUDY    30  30 100 S15       29.95F FOG     WCI  19
MOORHEAD       CLOUDY    32  32 100 S18       29.94F FOG     WCI  20
FERGUS FALLS   CLOUDY    30  28  93 S17       30.00S FOG     WCI  18
ELBOW LAKE     CLOUDY    30  29  96 S14       29.98R WCI  19
MORRIS MN      MOCLDY    30  28  93 S16       29.99R FOG     WCI  19
STAPLES        CLOUDY    28  27  93 S14       30.01S WCI  17
WHEATON        CLOUDY    30  28  93 SE14      29.99S WCI  20
$$
  *****  WEATHER ELSEWHERE ACROSS MINNESOTA  *****

CITY           SKY/WX    TMP DP  RH WIND       PRES   REMARKS
DULUTH         CLOUDY    30  25  81 S13       30.05S WCI  20
INTRNTL FALLS  CLOUDY    30  28  92 S3        29.99S FOG
ELY            CLOUDY    28  27  93 S9        30.04S WCI  20
CLOQUET        CLOUDY    30  27  86 S8        30.06S WCI  23
BRAINERD       CLOUDY    28  26  92 S15       30.04F WCI  16
HIBBING        CLOUDY    30  26  85 S6        30.03S FOG     WCI  24
ALEXANDRIA     CLOUDY    30  27  88 S20       30.00F WCI  17
SAINT CLOUD    CLOUDY    31  25  78 S12       30.08R WCI  22
MINNEAPOLIS    CLOUDY    32  26  78 SE14      30.11F WCI  22
$$

  *****  WEATHER ACROSS SOUTH DAKOTA  *****

CITY           SKY/WX    TMP DP  RH WIND       PRES   REMARKS
SIOUX FALLS    CLOUDY    30  29  96 S12       30.00F FOG     WCI  20
BROOKINGS      NOT AVBL
WATERTOWN      CLOUDY    29  28  96 S15       29.93S FOG     WCI  18
HURON          CLOUDY    30  29  96 S14       29.95S FOG     WCI  19
SISSETON       NOT AVBL
ABERDEEN       CLOUDY    29  27  92 S13       29.93R FOG     WCI  19
MITCHELL       CLOUDY    32  31  96 S8        29.98R FOG     WCI  25
PIERRE         PTCLDY    18  17  96 E3        29.89S FOG
MOBRIDGE       PTCLDY    27  25  92 SE10      29.83S WCI  17
RAPID CITY     PTCLDY    33  26  75 CALM      29.87S
$$

  *****  SOME WEATHER IN NEARBY STATES *****

CITY           SKY/WX    TMP DP  RH WIND       PRES   REMARKS
GLASGOW MT     CLEAR     33  23  66 CALM      29.74F
GREAT FALLS MT MOCLDY    38  25  59 SW13      29.69F
CHEYENNE WY    CLOUDY    37  19  48 W8        29.94S
SCOTTSBLUFF NE PTCLDY    28  22  78 E7        29.92R WCI  21
OMAHA NE       CLOUDY    35  32  88 S9        30.09F FOG
DES MOINES IA  CLOUDY    36  33  89 S6        30.14S
DAVENPORT IA   CLOUDY    33  28  81 SE8       30.22S
CHICAGO IL     CLOUDY    31  25  78 S6        30.25S
EAU CLAIRE WI  CLOUDY    31  26  82 S7        30.15S WCI  24
LA CROSSE WI   CLOUDY    33  28  81 SE8       30.19R HAZE
$$

  *****  SOME NATIONAL WEATHER *****

CITY           SKY/WX    TMP DP  RH WIND       PRES   REMARKS
LA GUARDIA NY  CLOUDY    32  22  66 NE7       30.28F
RALEIGH NC     CLOUDY    37  34  89 E3        30.28S FOG
ATLANTA GA     CLOUDY    51  45  79 E8        30.19R
NEW ORLEANS LA CLOUDY    52  48  86 NE13      30.14R
OKLAHOMA CITY  CLOUDY    43  36  76 S8        30.14S
ALBUQUERQUE NM MOCLDY    40  26  57 CALM      30.10R
SALT LAKE CITY CLOUDY    41  35  79 S6        30.08R
LOS ANGELES CA MOCLDY    61  55  81 W6        30.12S
BOISE ID       RAIN      41  41 100 SE7       29.94R
SEATTLE WA     CLOUDY    50  48  93 S14       29.47F FOG
$$

*** WEATHER ACROSS MANITOBA...SASKATCHEWAN AND ONTARIO ***
                ***ONTARIO***

CITY           SKY/WX    TMP DP  RH WIND       PRES   REMARKS
GERALDTON      CLOUDY    25  23  93 E5        30.14S WCI  19
THUNDER BAY    CLOUDY    32  30  93 S3        30.13S
SIOUX LOOKOUT  NOT AVBL
TORONTO        NOT AVBL
BIG TROUT LK   CLOUDY    23  21  93 SE8       30.04F WCI  14
PICKLE LAKE    FLURRIES  25  21  86 SE8       30.02S WCI  16
DRYDEN         CLOUDY    28  27  93 S7        29.98S WCI  21
KENORA         NOT AVBL
$$
                *** MANITOBA***

CITY           SKY/WX    TMP DP  RH WIND       PRES   REMARKS
BRANDON        NOT AVBL
DAUPHIN        CLOUDY    25  23  93 SE3       29.79F
ISLAND LAKE    FLURRIES  23  21  93 SE7       29.93F WCI  15
PILOT MOUND      N/A     25  23  93 CALM        N/A
THE PAS        NOT AVBL
THOMPSON       LGT SNOW  18  16  93 S5        29.86F WCI  11
WINNIPEG       FRZ DRZL  27  25  93 S14       29.89F FOG     WCI  15
LYNN LAKE      CLOUDY    14  14 100 S7        29.76S WCI   4
GILLAM         FLURRIES  19  16  86 S5        29.93F WCI  13
$$
                ***SASKATCHEWAN***

CITY           SKY/WX    TMP DP  RH WIND       PRES   REMARKS
ESTEVAN        MOCLDY    30  28  93 SW8       29.71F WCI  23
KINDERSLEY     NOT AVBL
LLOYDMINSTER   NOT AVBL
PRINCE ALBERT  FLURRIES  19  19 100 E3        29.68F
REGINA         NOT AVBL
YORKTON        FLURRIES  25  25 100 SE8       29.70F WCI  16


USA.gov is the U.S. government's official web portal to all federal, state and local government web resources and services.